User: anonymous   Login
Location: Corcelles
(46.1547°N, 4.7234°E)
Time: 00:16:58
(UTC+00:00)
Language:

Cosmos 1763 Rocket - Orbit

View from above orbital plane
View from above orbital plane
View from above satellite
View from above satellite

Ground track
Ground track

The orbit data is extracted from the following two-line orbital elements,

1 16864U 86052B   20272.46732975 +.00000018 +00000-0 +13788-4 0  9992
2 16864 074.0307 034.9542 0033283 198.8077 161.1852 14.40594620795352
Epoch (UTC): 28 September 2020 11:12:57
Eccentricity: 0.0033283
inclination: 74.0307°
perigee height: 733 km
apogee height: 780 km
right ascension of ascending node: 34.9542°
argument of perigee: 198.8077°
revolutions per day: 14.40594620
mean anomaly at epoch: 161.1852°
orbit number at epoch: 79535

The dashed part of the orbit path shows where the satellite is in the earth's shadow,  

DLR